Change the Weather History Date:

Wednesday, February 8, 2012

  Actual Average Record
Temperature  
Mean Temperature 40 °F -  
Max Temperature 48 °F 56 °F 60 °F (2001)
Min Temperature 33 °F 39 °F 26 °F (2003)
Degree Days  
Heating Degree Days 24    
Moisture  
Dew Point 30 °F    
Average Humidity 71    
Maximum Humidity 87    
Minimum Humidity 50    
Precipitation  
Precipitation 0.00 in 0.12 in - ()
Sea Level Pressure  
Sea Level Pressure 29.92 in    
Wind  
Wind Speed 5 mph ()    
Max Wind Speed 46 mph    
Max Gust Speed -    
Visibility 6.0 miles    
Events      
Averages and records for this station are not official NWS values.
T = Trace of Precipitation, MM = Missing Value Source: Averaged Metar Reports

Daily Weather History Graph

Daily Weather History Graph

Search for Another Location

Airport or City:

Trip Planner

Search our weather history database for the weather conditions in past years. The results will help you decide how hot, cold, wet, or windy it might be!

Date:

Astronomy

Feb. 08, 2012 Rise Set
Actual Time 7:15 AM CET 5:33 PM CET
Civil Twilight 6:46 AM CET 6:02 PM CET
Nautical Twilight 6:13 AM CET 6:35 PM CET
Astronomical Twilight 5:40 AM CET 7:07 PM CET
Moon 6:34 PM CET (2/8) 7:07 AM CET (2/8)
Length of Visible Light 11h 15m
Length of Day
10h 17m
Full, 100% of the Moon is Illuminated
Feb 8
Full
Feb 14
Last Quarter
Feb 21
New
Mar 1
First Quarter
Mar 8
Full

Hourly Weather History & Observations

Time (CET) Temp. Windchill Dew Point Humidity Pressure Visibility Wind Dir Wind Speed Gust Speed Precip Events Conditions
12:15 AM 35.6 °F - 30.2 °F 81% 29.77 in 5.0 mi NNE 2.3 mph - N/A   Mostly Cloudy
12:45 AM 35.6 °F 32.8 °F 30.2 °F 81% 29.77 in 5.0 mi NNE 3.5 mph - N/A   Mostly Cloudy
1:15 AM 33.8 °F 30.8 °F 28.4 °F 81% 29.77 in 5.0 mi North 3.5 mph - N/A   Mostly Cloudy
1:45 AM 33.8 °F 30.8 °F 28.4 °F 81% 29.77 in 5.0 mi NNE 3.5 mph - N/A   Mostly Cloudy
2:15 AM 33.8 °F 29.6 °F 28.4 °F 81% 29.77 in 5.0 mi NNE 4.6 mph - N/A   Mostly Cloudy
2:45 AM 33.8 °F 29.6 °F 28.4 °F 81% 29.77 in 5.0 mi NE 4.6 mph - N/A   Mostly Cloudy
3:15 AM 33.8 °F 30.8 °F 28.4 °F 81% 29.80 in 5.0 mi North 3.5 mph - N/A   Mostly Cloudy
3:45 AM 33.8 °F 30.8 °F 28.4 °F 81% 29.80 in 5.0 mi NNE 3.5 mph - N/A   Mostly Cloudy
4:15 AM 33.8 °F 29.6 °F 28.4 °F 81% 29.80 in 5.0 mi North 4.6 mph - N/A   Mostly Cloudy
4:45 AM 33.8 °F 29.6 °F 28.4 °F 81% 29.80 in 5.0 mi NNE 4.6 mph - N/A   Mostly Cloudy
5:15 AM 33.8 °F - 30.2 °F 87% 29.83 in 6.2 mi NE 2.3 mph - N/A   Mostly Cloudy
5:45 AM 33.8 °F 28.6 °F 28.4 °F 81% 29.83 in 6.2 mi NNE 5.8 mph - N/A   Mostly Cloudy
6:15 AM 33.8 °F 29.6 °F 30.2 °F 87% 29.83 in 6.2 mi North 4.6 mph - N/A   Scattered Clouds
6:45 AM 33.8 °F - 30.2 °F 87% 29.86 in 6.2 mi North 2.3 mph - N/A   Scattered Clouds
7:15 AM 33.8 °F 29.6 °F 30.2 °F 87% 29.86 in 6.2 mi NNE 4.6 mph - N/A   Scattered Clouds
7:45 AM 35.6 °F 31.7 °F 30.2 °F 81% 29.86 in 6.2 mi NNE 4.6 mph - N/A   Scattered Clouds
8:15 AM 35.6 °F 31.7 °F 30.2 °F 81% 29.89 in 6.2 mi NNE 4.6 mph - N/A   Scattered Clouds
8:45 AM 35.6 °F 32.8 °F 30.2 °F 81% 29.89 in 6.2 mi NE 3.5 mph - N/A   Scattered Clouds
9:15 AM 37.4 °F 34.9 °F 30.2 °F 75% 29.89 in 6.2 mi NNE 3.5 mph - N/A   Mostly Cloudy
9:45 AM 39.2 °F 35.9 °F 32.0 °F 75% 29.92 in 6.2 mi NNE 4.6 mph - N/A   Scattered Clouds
10:15 AM 39.2 °F 34.2 °F 32.0 °F 75% 29.95 in 6.2 mi North 6.9 mph - N/A   Scattered Clouds
10:45 AM 41.0 °F 35.8 °F 30.2 °F 65% 29.95 in 6.2 mi North 8.1 mph - N/A   Scattered Clouds
11:15 AM 41.0 °F 35.2 °F 30.2 °F 65% 29.95 in 6.2 mi North 9.2 mph - N/A   Scattered Clouds
11:45 AM 44.6 °F 39.2 °F 30.2 °F 57% 29.95 in 6.2 mi North 10.4 mph - N/A   Scattered Clouds
12:15 PM 46.4 °F 40.7 °F 30.2 °F 53% 29.95 in 6.2 mi North 12.7 mph - N/A   Scattered Clouds
12:45 PM 46.4 °F 40.7 °F 32.0 °F 57% 29.95 in 6.2 mi North 12.7 mph - N/A   Scattered Clouds
1:15 PM 46.4 °F 41.9 °F 32.0 °F 57% 29.95 in 6.2 mi North 9.2 mph - N/A   Scattered Clouds
1:45 PM 46.4 °F 42.4 °F 32.0 °F 57% 29.95 in 6.2 mi North 8.1 mph - N/A   Mostly Cloudy
2:15 PM 48.2 °F - 32.0 °F 54% 29.95 in 6.2 mi North 9.2 mph - N/A   Mostly Cloudy
2:45 PM 48.2 °F - 32.0 °F 54% 29.95 in 6.2 mi North 8.1 mph - N/A   Scattered Clouds
3:15 PM 48.2 °F - 30.2 °F 50% 29.95 in 6.2 mi North 8.1 mph - N/A   Scattered Clouds
3:45 PM 48.2 °F - 32.0 °F 54% 29.95 in 6.2 mi North 11.5 mph - N/A   Partly Cloudy
4:15 PM 48.2 °F - 30.2 °F 50% 29.95 in 6.2 mi North 8.1 mph - N/A   Partly Cloudy
4:45 PM 46.4 °F 42.9 °F 30.2 °F 53% 29.95 in 6.2 mi NE 6.9 mph - N/A   Partly Cloudy
5:15 PM 46.4 °F 42.9 °F 30.2 °F 53% 29.95 in 6.2 mi NE 6.9 mph - N/A   Partly Cloudy
5:45 PM 44.6 °F 40.2 °F 28.4 °F 53% 29.98 in 6.2 mi NNE 8.1 mph - N/A   Partly Cloudy
6:15 PM 42.8 °F 38.6 °F 28.4 °F 57% 29.98 in 6.2 mi North 6.9 mph - N/A   Scattered Clouds
6:45 PM 41.0 °F 37.1 °F 30.2 °F 65% 29.98 in 6.2 mi North 5.8 mph - N/A   Scattered Clouds
7:15 PM 41.0 °F 37.1 °F 30.2 °F 65% 30.01 in 6.2 mi North 5.8 mph - N/A   Scattered Clouds
7:45 PM 41.0 °F 35.8 °F 30.2 °F 65% 30.01 in 6.2 mi NNE 8.1 mph - N/A   Scattered Clouds
8:15 PM 39.2 °F 35.0 °F 30.2 °F 70% 30.01 in 6.2 mi North 5.8 mph - N/A   Scattered Clouds
8:45 PM 39.2 °F 34.2 °F 30.2 °F 70% 30.04 in 6.2 mi NNE 6.9 mph - N/A   Scattered Clouds
9:15 PM 37.4 °F 32.1 °F 30.2 °F 75% 30.04 in 6.2 mi North 6.9 mph - N/A   Scattered Clouds
9:45 PM 37.4 °F 31.4 °F 30.2 °F 75% 30.04 in 6.2 mi NNE 8.1 mph - N/A   Partly Cloudy
10:15 PM 37.4 °F 32.1 °F 30.2 °F 75% 30.04 in 6.2 mi NNE 6.9 mph - N/A   Partly Cloudy
10:45 PM 37.4 °F 31.4 °F 30.2 °F 75% 30.04 in 6.2 mi NNE 8.1 mph - N/A   Scattered Clouds
11:15 PM 35.6 °F 20.0 °F 30.2 °F 81% 30.04 in 6.2 mi NNE 46.0 mph - N/A   Scattered Clouds
11:45 PM 35.6 °F 29.9 °F 30.2 °F 81% 30.06 in 6.2 mi NNE 6.9 mph - N/A   Scattered Clouds